Flag for U.S.A. Weather past 2 weeks in Bellingham, Washington, U.S.A.

Now
30 °F

Clear.


Feels Like: 30 °F
Forecast: 36 / 51 °F
Wind: No wind

Location: Bellingham International Airport

Current Time: Mar 1, 2015 at 3:44:42 AM

Latest Report: Mar 1, 2015 at 2:53 AM


Visibility: 10 mi

Pressure: 30.25 "Hg

Humidity: 85%

Dew point: 26 °F

Location of BellinghamLocation

Historic Weather in Bellingham — Graph

°F

Bellingham temperature yesterday

Maximum temperature yesterday: 55 °F (at 2:53 PM)
Minimum temperature yesterday: 34 °F (at 10:53 PM)
Average temperature yesterday: 45 °F

Past Weeks' High & Low Weather Summary

 TemperatureHumidityPressure
High59 °F (Feb 17, 2:53 PM)100% (Feb 21, 5:53 AM)30.52 "Hg (Feb 21, 5:53 AM)
Low30 °F (Feb 23, 6:53 AM)22% (Feb 28, 3:53 PM)29.78 "Hg (Feb 27, 6:53 AM)
Average45 °F73%30.29 "Hg
* Reported Feb 14 1:53 AM — Mar 1 1:53 AM, Bellingham, Weather by CustomWeather, © 2015

Note: Actual official high and low records may vary slightly from our data, if they occured in-between our weather recording intervals... More about our weather records

Advertising

Bellingham weather history for previous 24 hours

 ConditionsComfort  
Time TempWeatherWind HumidityBarometerVisibility
1:53 AM
Sun, Mar 1
32 °FClear.No wind82%30.26 "Hg10 mi
12:53 AM34 °FClear.No wind79%30.26 "Hg10 mi
11:53 PM
Sat, Feb 28
34 °FClear.No wind79%30.26 "Hg10 mi
10:53 PM34 °FClear.No wind73%30.26 "Hg10 mi
9:53 PM38 °FClear.No wind65%30.25 "Hg10 mi
8:53 PM35 °FClear.No wind75%30.23 "Hg10 mi
7:53 PM37 °FClear.No wind62%30.23 "Hg10 mi
6:53 PM44 °FClear.5 mph43%30.23 "Hg10 mi
5:53 PM48 °FClear.5 mph41%30.22 "Hg10 mi
4:53 PM51 °FSunny.8 mph38%30.21 "Hg10 mi
3:53 PM55 °FSunny.8 mph22%30.21 "Hg10 mi
2:53 PM55 °FSunny.16 mph23%30.20 "Hg10 mi
1:53 PM54 °FSunny.14 mph24%30.21 "Hg10 mi
12:53 PM54 °FSunny.14 mph24%30.23 "Hg10 mi
11:53 AM51 °FSunny.20 mph23%30.23 "Hg10 mi
10:53 AM49 °FSunny.14 mph26%30.24 "Hg10 mi
9:53 AM47 °FSunny.20 mph28%30.24 "Hg10 mi
8:53 AM45 °FSunny.12 mph33%30.24 "Hg10 mi
7:53 AM43 °FSunny.10 mph34%30.21 "Hg10 mi
6:53 AM41 °FClear.10 mph36%30.18 "Hg10 mi
5:53 AM42 °FClear.14 mph36%30.17 "Hg10 mi
4:53 AM42 °FClear.15 mph38%30.15 "Hg10 mi
3:53 AM43 °FClear.21 mph38%30.12 "Hg10 mi
Weather by CustomWeather, © 2015

See weather overviewHow to use our weather pages